Regional Weather Roundup
Issued by NWS

Home | Current Version | Previous Version | Text Only | Print | Product List | Glossary Off
Versions: 1 2 3 4 5 6 7 8 9 10 11 12 13 14 15 16 17 18 19 20 21 22 23 24 25 26 27 28 29 30 31 32 33 34 35 36 37 38 39 40 41 42 43 44 45 46 47 48 49 50

000
ASUS43 KFSD 240710
RWRSD

WEATHER ROUNDUP FOR SOUTH DAKOTA
NATIONAL WEATHER SERVICE SIOUX FALLS SD
200 AM CDT SUN MAY 24 2015

NOTE: "FAIR" INDICATES FEW OR NO CLOUDS BELOW 12,000 FEET WITH NO
SIGNIFICANT WEATHER AND/OR OBSTRUCTIONS TO VISIBILITY.


SDZ001>005-009-010-012>017-240800-
NORTHWEST AND NORTH CENTRAL SOUTH DAKOTA

CITY           SKY/WX    TMP DP  RH WIND       PRES   REMARKS
BUFFALO          N/A     51  48  89 E8        30.00F
FAITH            N/A     53  51  93 NE9       30.05R
MOBRIDGE       CLOUDY    56  53  90 E12       30.03F
$$

SDZ012>016-024>037-041>051-057-063-072>074-240800-
SOUTHWEST AND SOUTH CENTRAL SOUTH DAKOTA

CITY           SKY/WX    TMP DP  RH WIND       PRES   REMARKS
RAPID CTY ARPT LGT RAIN  53  52  96 E9        30.01F FOG
PIERRE         CLOUDY    55  54  96 E5        30.03S
CUSTER         LGT RAIN  47  45  93 E12       30.02F FOG
ELLSWORTH AFB  LGT RAIN  52  52 100 E9        30.00  FOG
PHILIP         LGT RAIN  55  54  96 E8        30.01S
PINE RIDGE     CLOUDY    53  50  89 E12       29.98F
SPEARFISH      CLOUDY    50  50 100 E8        30.03F FOG
WINNER         LGT RAIN  56  54  93 E5        30.01F FOG
$$

SDZ004>011-016>023-039-040-240800-
NORTHEAST SOUTH DAKOTA

CITY           SKY/WX    TMP DP  RH WIND       PRES   REMARKS
ABERDEEN       PTCLDY    56  49  77 E9        30.08R
WATERTOWN      PTCLDY    56  47  71 E7        30.06R
BROOKINGS      CLOUDY    57  52  82 E7        30.06F
SISSETON         N/A     53  48  83 CALM      30.09R
$$

SDZ017-020-022-023-036>040-048>070-240800-
SOUTHEAST SOUTH DAKOTA

CITY           SKY/WX    TMP DP  RH WIND       PRES   REMARKS
SIOUX FALLS    LGT RAIN  59  57  93 SE6       30.06S
HURON          CLOUDY    56  53  90 CALM      30.04F
CHAMBERLAIN    DRIZZLE   55  55  99 E6        30.03F
MITCHELL       LGT RAIN  57  56  96 SE5       30.04F FOG
YANKTON        CLOUDY    57  55  94 E8        30.02F
$$

ABBREVIATIONS USED IN REMARKS
   TC - TEMPERATURE IN CELSIUS
  WCI - WIND CHILL INDEX
   HX - HEAT INDEX
  VSB - VISIBILITY




USA.gov is the U.S. government's official web portal to all federal, state and local government web resources and services.